Find Starlink 5573

NORAD ID: 55750 Int'l Des: 2023-028 Owner: SPXS Country: US Constellation: starlink operational
LEOCIRCULAR

リアルタイム位置

3D地球を読み込み中...

Starlink 5573について

説明を読み込み中...

次回通過

Passes for default location (London). Set your location on the main map for personalized predictions.

高度履歴

Loading altitude history...

軌道要素

1 55750U 23028K 26133.27235867 -.00000429 00000-0 -28160-4 0 9990
2 55750 69.9996 81.6365 0002898 275.4898 84.5930 14.98336475175711
Epoch: May 13, 2026 • Age: 12 hours

現在のステータス

高度 585.5 km
速度 7.57 km/s
衛星直下点 69.95°N, 19.43°E
打ち上げ日 Mar 3, 2023
運用期間 3.1 years
タイプ internet

技術仕様

分類 Payload
質量 305.00 kg
乾燥質量 290.00 kg
総質量 305.00 kg
長さ 0.20 m
直径 2.80 m
スパン 9.00 m
形状 Box + pan
製造者 SPXS
バスタイプ Starlink
フェーズステータス In Orbit
所有者/国 SPXS/US

Most Searched